Flag for Japan Weather past 2 weeks in Kumamoto, Japan

Now
42 °F

Quite cool.


Feels Like: 40 °F
Forecast: 35 / 51 °F
Wind: 3 mph from Northeast

Location: Kumamoto

Current Time: Dec 28, 2014 at 5:08:59 AM

Latest Report: Dec 28, 2014 at 4:00 AM


Visibility: N/A

Pressure: 30.24 "Hg

Humidity: 82%

Dew point: 37 °F

Location of KumamotoLocation

Historic Weather in Kumamoto — Graph

°F

Kumamoto temperature yesterday

Maximum temperature yesterday: 54 °F (at 3:00 PM)
Minimum temperature yesterday: 32 °F (at 4:00 AM)
Average temperature yesterday: 42 °F

Past Weeks' High & Low Weather Summary

 TemperatureHumidityPressure
High54 °F (Dec 27, 3:00 PM)99% (Dec 20, 6:00 AM)30.54 "Hg (Dec 20, 6:00 AM)
Low26 °F (Dec 19, 7:00 AM)32% (Dec 19, 1:00 PM)29.90 "Hg (Dec 16, 6:00 AM)
Average41 °F70%30.25 "Hg
* Reported Dec 13 3:00 AM — Dec 28 3:00 AM, Kumamoto, Weather by CustomWeather, © 2014

Note: Actual official high and low records may vary slightly from our data, if they occured in-between our weather recording intervals... More about our weather records

Advertising

Kumamoto weather history for previous 24 hours

 ConditionsComfort  
Time TempWeatherWind HumidityBarometerVisibility
3:00 AM
Dec 28
43 °FOvercast.3 mph77%30.26 "Hg9 mi
2:00 AM43 °FQuite cool.2 mph79%30.27 "HgN/A
1:00 AM44 °FQuite cool.3 mph77%30.28 "HgN/A
12:00 AM44 °FQuite cool.2 mph77%30.30 "HgN/A
11:00 PM
Dec 27
44 °FQuite cool.2 mph74%30.28 "HgN/A
10:00 PM45 °FQuite cool.No wind69%30.31 "HgN/A
9:00 PM44 °FOvercast.7 mph75%30.31 "Hg9 mi
8:00 PM44 °FQuite cool.2 mph75%30.32 "HgN/A
7:00 PM46 °FCool.5 mph72%30.32 "HgN/A
6:00 PM48 °FPassing clouds.1 mph64%30.32 "Hg9 mi
5:00 PM52 °FCool.1 mph57%30.31 "HgN/A
4:00 PM54 °FCool.2 mph49%30.29 "HgN/A
3:00 PM54 °FOvercast.2 mph48%30.29 "Hg16 mi
2:00 PM53 °FCool.2 mph47%30.30 "HgN/A
1:00 PM52 °FCool.3 mph46%30.32 "HgN/A
12:00 PM49 °FOvercast.1 mph49%30.35 "Hg12 mi
11:00 AM46 °FCool.5 mph56%30.40 "HgN/A
10:00 AM42 °FQuite cool.3 mph65%30.41 "HgN/A
9:00 AM35 °FOvercast.2 mph80%30.41 "Hg16 mi
8:00 AM33 °FChilly.2 mph82%30.40 "HgN/A
7:00 AM33 °FChilly.5 mph83%30.37 "HgN/A
6:00 AM33 °FClear.6 mph81%30.36 "Hg16 mi
5:00 AM33 °FChilly.6 mph81%30.34 "HgN/A
Weather by CustomWeather, © 2014

See weather overviewHow to use our weather pages